星链-30757 (STARLINK-30757 )

导读

STARLINK-30757是美国SpaceX公司星链星座的卫星,于2023年10月22日发射升空,运行在近地轨道。它属于第二代星链组网卫星,承担全球宽带互联网接入服务,可为偏远地区、移动场景提供低延迟高速网络,也支持应急通信与军事应用。该星配备星间激光链路与自主避碰系统,遵循太空碎片管理规范,服役结束后会再入大气层完全销毁,是星链全球覆盖组网的重要组成部分。

基本信息
目录编号:
58131
目录名称:
STARLINK-30757
国际标识:
2023-162P
轨道中心:
EARTH
卫星名称:
星链-30757
卫星全名:
星链-30757 (STARLINK-30757 )
卫星状态:
在轨 (已飞行1049 天)
发射日期:
2023-10-22 UTC
国别 :
美国 (US)
星等 :
--
轨道信息
数据来源 国际轨道数据 AOE轨道数据
星历时间 2026-09-04T21:41:19+0800
18小时前
查看轨道信息
2026-08-31T22:00:00+0800
4天前
查看轨道信息
半长轴 6861.193km 6861.185km
偏心率 0.0000697 0.000081
轨道倾角 43.002° 43.005°
近地点辐角 275.758° 204.787°
升交点赤经 198.938° 221.458°
平近点角 84.319° 163.824°
近地点 482.577km 482.492km
远地点 483.535km 483.604km
周期 94.267分钟 94.267分钟
每日圈数 15.275779 15.275805
详细信息
固有亮度:
5
最大亮度:
0.3
卫星平台:
Starlink v2.0 mini
覆盖范围:
全球
运营商:
太空探索技术公司
运营商所在国:
美国
制造商(研发单位):
太空探索技术公司
制造商所在国:
美国
使用方式:
暂无
卫星简介
星链(Starlink)计划是由太空探索技术公司(SpaceX)提出的一个巨型低轨卫星互联网星座项目,计划在2019年至2024年间在太空搭建由约1.2万颗卫星组成的“星链”网络,其中1584颗将部署在地球上空550千米处的近地轨道,并从2020年开始工作。该卫星仍在工作。
2D轨道图
3D轨道图
轨道高度分析图
轨道倾角分析图
轨道综合分析图
查看轨道综合分析图
交会数据列表
事件ID 空间交会对象 最接近时刻(TCA) 交会距离 交会风险概率(CRP) 交会风险指数(CRI) 操作
CDM_260907-014405-813106-299522
2026-09-07T
01:44:07+0000
0.428 km
远距离
7.860656E-5 中风险 0.73
CDM_260906-232205-813106-299522
2026-09-06T
23:22:53+0000
0.607 km
远距离
2.884451E-5 中风险 0.64
CDM_260829-192105-813105-929921
2026-08-29T
19:21:54+0000
1.088 km
极远距离
1.272024E-5 中风险 0.57
CDM_260907-041405-813106-409221
OBJECT F (64092)
2026-09-07T
04:14:36+0000
1.749 km
极远距离
3.960431E-6 低风险 0.47
CDM_260907-081505-813106-442421
2026-09-07T
08:15:48+0000
1.750 km
极远距离
3.686662E-6 低风险 0.46
CDM_260902-031505-813106-299521
2026-09-02T
03:15:20+0000
1.360 km
极远距离
2.002994E-6 低风险 0.41
CDM_260902-022805-813106-299521
2026-09-02T
02:28:15+0000
1.430 km
极远距离
1.719287E-6 低风险 0.4
CDM_260907-000905-813106-299522
2026-09-07T
00:09:58+0000
1.710 km
极远距离
1.043889E-6 低风险 0.35
CDM_260902-040205-813106-299521
2026-09-02T
04:02:24+0000
1.831 km
极远距离
8.808338E-7 极低风险 0.34
CDM_260907-005705-813106-299522
2026-09-07T
00:57:03+0000
1.953 km
极远距离
7.595111E-7 极低风险 0.33